Regional Weather Roundup
Issued by NWS New Orleans/Baton Rouge, LA

Home | Current Version | Previous Version | Graphics & Text | Print | Product List | Glossary On
Versions: 1 2 3 4 5 6 7 8 9 10 11 12 13 14 15 16 17 18 19 20 21 22 23 24 25 26 27 28 29 30 31 32 33 34 35 36 37 38 39 40 41 42 43 44 45 46 47 48 49 50
184
ASUS44 KLIX 241405
RWRLIX
NEW ORLEANS REGIONAL WEATHER ROUNDUP
NATIONAL WEATHER SERVICE NEW ORLEANS LA
900 AM CDT FRI OCT 24 2014

NOTE: "FAIR" INDICATES FEW OR NO CLOUDS BELOW 12,000 FEET WITH NO
      SIGNIFICANT WEATHER AND/OR OBSTRUCTIONS TO VISIBILITY.
      SKY/WX - SKY CONDITION AND SIGNIFICANT WEATHER.
      TMP - AIR TEMPERATURE.     DP    - DEWPOINT TEMPERATURE.
      RH  - RELATIVE HUMIDITY.   PRES  - PRESSURE.
      HI  - HEAT INDEX.          WCI   - WIND CHILL INDEX.

*  THESE STATIONS ARE NOT NWS OR FAA STATIONS AND ARE NOT UNDER
   NWS QUALITY CONTROL.

LAZ038-040-048-061>063-065>067-069-241500-
SOUTHEAST LOUISIANA

CITY           SKY/WX    TMP DP  RH WIND       PRES   REMARKS
N.O. AUDUBON     N/A     67  55  64 MISG        N/A
N.O. INTL ARPT MOSUNNY   66  54  65 VRB3      30.12R
N.O. LAKEFRONT SUNNY     65  52  62 NE10      30.12R
N.O. DOWNTOWN*   N/A     63  46  55 N8        30.12R
SLIDELL        SUNNY     56  50  80 N5        30.12R
BATON ROUGE    SUNNY     56  49  77 N5        30.14R
BOOTHVILLE     SUNNY     70  56  61 NE6       30.10R
BELLE CHASSE   MOSUNNY   63  53  70 NE3       30.11R
BOGALUSA*        N/A     56  50  80 N3        30.14R
NEW ROADS*       N/A     54  50  87 CALM      30.15R
GONZALES*        N/A     57  52  83 CALM      30.13R
HAMMOND*       SUNNY     59  50  72 N3        30.14R
HOUMA*         SUNNY     61  55  82 N9        30.12
PORT FOURCHON* SUNNY     66  59  77 NE9       30.13R

$$

MSZ070-080>082-241500-
SOUTHERN MISSISSIPPI

CITY           SKY/WX    TMP DP  RH WIND       PRES   REMARKS
MCCOMB         SUNNY     56  49  77 N5        30.14R
GULFPORT       SUNNY     60  49  66 N6        30.11R
BILOXI         SUNNY     60  49  66 VRB5      30.11R
PASCAGOULA     SUNNY     58  51  78 N5        30.10R
STENNIS ARPT*  SUNNY     57  48  72 CALM      30.12R

$$

COASTAL OBSERVATIONS
LAKE AND NEARSHORE STATIONS

STATION/POSITION TIME  TEMP    WIND        PRES    WAVE
                       AIR SEA DIR/SP/G            HT/PER
                 (UTC) (F)     (DEG/KT/KT) (MB)    (FT/S)
PASCAGOULA       1400   60      20/  5/  9 1018.5
WAVELAND YACHT   1400   59      20/  5/  7 1018.9
GRAND ISLE       1400   66 73   60/  7/ 11 1019.7
SOUTHWEST PASS   1400   72 80   20/ 13/ 14 1019.0
NEW CANAL        1400   64 69   60/  8/  9 1020.1
SHELL BEACH      1400   65 65   60/  9/ 11 1019.2

OFFSHORE STATIONS

STATION/POSITION TIME  TEMP    WIND        PRES    WAVE
                       AIR SEA DIR/SP/G            HT/PER
                 (UTC) (F)     (DEG/KT/KT) (MB)    (FT/S)
64 S DAUPHIN ISL 1251   71 78   10/ 12/ 16 1018.9    3/ 7

$$




USA.gov is the U.S. government's official web portal to all federal, state and local government web resources and services.